| time (UTC) | temp C | wind direction | speed KPH | gust KPH | rain 1hr cm | rain 24hr cm | rain mn cm | humidity % | barometer mb |
| 20260507060602 | 19 | 126 | 0.0 | 0.0 | 0.00 | 0.00 | 0.00 | 56 | 1016.1 |
| 20260507060049 | 18 | 116 | 3.2 | 3.2 | 0.00 | 0.00 | 0.00 | 59 | 1016.1 |
| 20260507055550 | 19 | 128 | 3.2 | 3.2 | 0.00 | 0.00 | 0.00 | 59 | 1016.1 |
| 20260507055049 | 19 | 126 | 3.2 | 3.2 | 0.00 | 0.00 | 0.00 | 60 | 1016.0 |
| 20260507054549 | 19 | 120 | 3.2 | 3.2 | 0.00 | 0.00 | 0.00 | 59 | 1015.9 |
| 20260507054049 | 20 | 120 | 3.2 | 3.2 | 0.00 | 0.00 | 0.00 | 57 | 1015.7 |
| 20260507053549 | 20 | 120 | 0.0 | 0.0 | 0.00 | 0.00 | 0.00 | 54 | 1015.7 |
| 20260507053036 | 20 | 120 | 0.0 | 0.0 | 0.00 | 0.00 | 0.00 | 54 | 1015.6 |
| 20260507052524 | 20 | 48 | 0.0 | 0.0 | 0.00 | 0.00 | 0.00 | 53 | 1015.6 |
| 20260507052025 | 20 | 48 | 3.2 | 3.2 | 0.00 | 0.00 | 0.00 | 53 | 1015.6 |
| 20260507051512 | 20 | 48 | 0.0 | 0.0 | 0.00 | 0.00 | 0.00 | 53 | 1015.4 |
| 20260507051011 | 20 | 48 | 3.2 | 3.2 | 0.00 | 0.00 | 0.00 | 53 | 1015.5 |
| 20260507050459 | 19 | 48 | 0.0 | 0.0 | 0.00 | 0.00 | 0.00 | 56 | 1015.5 |
| 20260507045959 | 18 | 44 | 3.2 | 3.2 | 0.00 | 0.00 | 0.00 | 58 | 1015.5 |
| 20260507045446 | 18 | 20 | 3.2 | 3.2 | 0.00 | 0.00 | 0.00 | 59 | 1015.4 |
| 20260507044934 | 18 | 20 | 0.0 | 0.0 | 0.00 | 0.00 | 0.00 | 61 | 1015.3 |
| 20260507044434 | 18 | 17 | 0.0 | 0.0 | 0.00 | 0.00 | 0.00 | 61 | 1015.3 |
| 20260507043921 | 17 | 17 | 0.0 | 0.0 | 0.00 | 0.00 | 0.00 | 62 | 1015.3 |
| 20260507043421 | 17 | 17 | 0.0 | 0.0 | 0.00 | 0.00 | 0.00 | 66 | 1015.3 |
| 20260507042909 | 16 | 17 | 0.0 | 0.0 | 0.00 | 0.00 | 0.00 | 63 | 1015.3 |
| 20260507042410 | 16 | 319 | 0.0 | 0.0 | 0.00 | 0.00 | 0.00 | 69 | 1015.4 |
| 20260507041857 | 15 | 319 | 3.2 | 3.2 | 0.00 | 0.00 | 0.00 | 71 | 1015.3 |
| 20260507041345 | 15 | 319 | 3.2 | 3.2 | 0.00 | 0.00 | 0.00 | 74 | 1015.3 |
| 20260507040844 | 15 | 324 | 3.2 | 3.2 | 0.00 | 0.00 | 0.00 | 75 | 1015.3 |
| 20260507040332 | 14 | 324 | 3.2 | 3.2 | 0.00 | 0.00 | 0.00 | 76 | 1015.4 |
| 20260507035831 | 14 | 330 | 3.2 | 3.2 | 0.00 | 0.00 | 0.00 | 78 | 1015.3 |
| 20260507035331 | 14 | 330 | 3.2 | 3.2 | 0.00 | 0.00 | 0.00 | 77 | 1015.4 |
| 20260507034831 | 13 | 318 | 3.2 | 3.2 | 0.00 | 0.00 | 0.00 | 76 | 1015.3 |
| 20260507034332 | 14 | 312 | 3.2 | 3.2 | 0.00 | 0.00 | 0.00 | 77 | 1015.2 |
| 20260507033831 | 13 | 306 | 6.4 | 6.4 | 0.00 | 0.00 | 0.00 | 76 | 1015.2 |
| 20260507033331 | 13 | 312 | 6.4 | 6.4 | 0.00 | 0.00 | 0.00 | 78 | 1015.1 |
| 20260507032818 | 13 | 330 | 3.2 | 3.2 | 0.00 | 0.00 | 0.00 | 80 | 1015.2 |
| 20260507032306 | 13 | 330 | 3.2 | 3.2 | 0.00 | 0.00 | 0.00 | 79 | 1015.1 |
| 20260507031754 | 13 | 330 | 3.2 | 3.2 | 0.00 | 0.00 | 0.00 | 77 | 1015.0 |
| 20260507031253 | 13 | 318 | 3.2 | 3.2 | 0.00 | 0.00 | 0.00 | 80 | 1015.0 |
| 20260507030741 | 13 | 318 | 3.2 | 3.2 | 0.00 | 0.00 | 0.00 | 78 | 1015.0 |
| 20260507030241 | 13 | 318 | 3.2 | 3.2 | 0.00 | 0.00 | 0.00 | 79 | 1014.9 |
| 20260507025728 | 13 | 318 | 4.8 | 4.8 | 0.00 | 0.00 | 0.00 | 78 | 1014.9 |
| 20260507025229 | 13 | 318 | 6.4 | 6.4 | 0.00 | 0.00 | 0.00 | 78 | 1014.9 |
| 20260507024717 | 13 | 312 | 4.8 | 4.8 | 0.00 | 0.00 | 0.00 | 78 | 1014.9 |
| 20260507024216 | 13 | 312 | 4.8 | 4.8 | 0.00 | 0.00 | 0.00 | 79 | 1014.8 |
| 20260507023703 | 13 | 318 | 3.2 | 3.2 | 0.00 | 0.00 | 0.00 | 78 | 1014.7 |
| 20260507023151 | 14 | 318 | 4.8 | 4.8 | 0.00 | 0.00 | 0.00 | 76 | 1014.7 |
| 20260507022651 | 14 | 312 | 3.2 | 3.2 | 0.00 | 0.00 | 0.00 | 77 | 1014.7 |
| 20260507022139 | 14 | 318 | 3.2 | 3.2 | 0.00 | 0.00 | 0.00 | 77 | 1014.7 |
| 20260507021639 | 14 | 312 | 6.4 | 6.4 | 0.00 | 0.00 | 0.00 | 77 | 1014.7 |
| 20260507021126 | 14 | 318 | 4.8 | 4.8 | 0.00 | 0.00 | 0.00 | 77 | 1014.7 |
| 20260507020626 | 13 | 312 | 4.8 | 4.8 | 0.00 | 0.00 | 0.00 | 76 | 1014.7 |
| 20260507020114 | 13 | 312 | 3.2 | 3.2 | 0.00 | 0.00 | 0.00 | 78 | 1014.6 |
| 20260507015615 | 13 | 318 | 3.2 | 3.2 | 0.00 | 0.00 | 0.00 | 76 | 1014.6 |
| 20260507015102 | 13 | 312 | 6.4 | 6.4 | 0.00 | 0.00 | 0.00 | 78 | 1014.5 |
| 20260507014550 | 13 | 312 | 3.2 | 3.2 | 0.00 | 0.00 | 0.00 | 76 | 1014.4 |
| 20260507014049 | 14 | 312 | 3.2 | 3.2 | 0.00 | 0.00 | 0.00 | 73 | 1014.5 |
| 20260507013538 | 14 | 306 | 4.8 | 4.8 | 0.00 | 0.00 | 0.00 | 75 | 1014.3 |
| 20260507013039 | 15 | 312 | 3.2 | 3.2 | 0.00 | 0.00 | 0.00 | 73 | 1014.3 |
| 20260507012524 | 15 | 303 | 3.2 | 3.2 | 0.00 | 0.00 | 0.00 | 70 | 1014.4 |
| 20260507012024 | 16 | 96 | 3.2 | 3.2 | 0.00 | 0.00 | 0.00 | 67 | 1014.3 |
| 20260507011511 | 15 | 336 | 3.2 | 3.2 | 0.00 | 0.00 | 0.00 | 71 | 1014.3 |
| 20260507011011 | 15 | 312 | 3.2 | 3.2 | 0.00 | 0.00 | 0.00 | 71 | 1014.3 |
| 20260507010501 | 15 | 303 | 3.2 | 3.2 | 0.00 | 0.00 | 0.00 | 71 | 1014.3 |
| 20260507005946 | 15 | 306 | 3.2 | 3.2 | 0.00 | 0.00 | 0.00 | 67 | 1014.2 |
| 20260507005447 | 15 | 246 | 4.8 | 4.8 | 0.00 | 0.00 | 0.00 | 67 | 1014.2 |
| 20260507004938 | 15 | 300 | 3.2 | 3.2 | 0.00 | 0.00 | 0.00 | 69 | 1014.1 |
| 20260507004434 | 14 | 312 | 6.4 | 6.4 | 0.00 | 0.00 | 0.00 | 71 | 1014.1 |
| 20260507003921 | 14 | 318 | 6.4 | 6.4 | 0.00 | 0.00 | 0.00 | 69 | 1014.2 |
| 20260507003421 | 14 | 318 | 3.2 | 3.2 | 0.00 | 0.00 | 0.00 | 73 | 1014.2 |
| 20260507002909 | 14 | 312 | 6.4 | 6.4 | 0.00 | 0.00 | 0.00 | 72 | 1014.1 |
| 20260507002409 | 14 | 312 | 3.2 | 3.2 | 0.00 | 0.00 | 0.00 | 73 | 1014.1 |
| 20260507001856 | 14 | 324 | 3.2 | 3.2 | 0.00 | 0.00 | 0.00 | 70 | 1014.2 |
| 20260507001344 | 14 | 324 | 3.2 | 3.2 | 0.00 | 0.00 | 0.00 | 70 | 1014.3 |
| 20260507000844 | 14 | 320 | 6.4 | 6.4 | 0.00 | 0.00 | 0.00 | 69 | 1014.3 |
| 20260507000345 | 14 | 318 | 3.2 | 3.2 | 0.00 | 0.00 | 0.00 | 68 | 1014.3 |
| 20260506235846 | 14 | 318 | 3.2 | 3.2 | 0.00 | 0.00 | 0.00 | 70 | 1014.4 |
| 20260506235343 | 14 | 318 | 3.2 | 3.2 | 0.00 | 0.00 | 0.00 | 70 | 1014.4 |
| 20260506234843 | 14 | 294 | 6.4 | 6.4 | 0.00 | 0.00 | 0.00 | 70 | 1014.4 |
| 20260506234331 | 15 | 318 | 3.2 | 3.2 | 0.00 | 0.00 | 0.00 | 69 | 1014.5 |
| 20260506233831 | 15 | 324 | 6.4 | 6.4 | 0.00 | 0.00 | 0.00 | 68 | 1014.5 |
| 20260506233318 | 15 | 306 | 0.0 | 0.0 | 0.00 | 0.00 | 0.00 | 66 | 1014.5 |
| 20260506232819 | 15 | 318 | 4.8 | 4.8 | 0.00 | 0.00 | 0.00 | 64 | 1014.5 |
| 20260506232318 | 16 | 312 | 3.2 | 3.2 | 0.00 | 0.00 | 0.00 | 65 | 1014.5 |
| 20260506231818 | 15 | 318 | 6.4 | 6.4 | 0.00 | 0.00 | 0.00 | 62 | 1014.5 |
| 20260506231317 | 15 | 312 | 3.2 | 3.2 | 0.00 | 0.00 | 0.00 | 65 | 1014.6 |
| 20260506230805 | 15 | 306 | 4.8 | 4.8 | 0.00 | 0.00 | 0.00 | 64 | 1014.5 |
| 20260506230253 | 15 | 300 | 3.2 | 3.2 | 0.00 | 0.00 | 0.00 | 68 | 1014.6 |
| 20260506225753 | 15 | 320 | 6.4 | 6.4 | 0.00 | 0.00 | 0.00 | 66 | 1014.6 |
| 20260506225254 | 15 | 318 | 3.2 | 3.2 | 0.00 | 0.00 | 0.00 | 66 | 1014.6 |
| 20260506224752 | 16 | 318 | 6.4 | 6.4 | 0.00 | 0.00 | 0.00 | 62 | 1014.6 |
| 20260506224252 | 16 | 312 | 6.4 | 6.4 | 0.00 | 0.00 | 0.00 | 62 | 1014.7 |
| 20260506223752 | 16 | 324 | 6.4 | 6.4 | 0.00 | 0.00 | 0.00 | 61 | 1014.8 |
| 20260506223239 | 16 | 312 | 6.4 | 6.4 | 0.00 | 0.00 | 0.00 | 60 | 1014.8 |
| 20260506222739 | 16 | 306 | 3.2 | 3.2 | 0.00 | 0.00 | 0.00 | 62 | 1014.8 |
| 20260506222227 | 16 | 306 | 0.0 | 0.0 | 0.00 | 0.00 | 0.00 | 62 | 1014.8 |
| 20260506221728 | 16 | 306 | 6.4 | 6.4 | 0.00 | 0.00 | 0.00 | 59 | 1014.8 |
| 20260506221227 | 16 | 312 | 3.2 | 3.2 | 0.00 | 0.00 | 0.00 | 60 | 1014.8 |
| 20260506220727 | 15 | 318 | 6.4 | 6.4 | 0.00 | 0.00 | 0.00 | 64 | 1014.8 |
| 20260506220226 | 16 | 324 | 6.4 | 6.4 | 0.00 | 0.00 | 0.00 | 62 | 1014.7 |
| 20260506215726 | 15 | 324 | 3.2 | 3.2 | 0.00 | 0.00 | 0.00 | 65 | 1014.8 |
| 20260506215214 | 16 | 324 | 3.2 | 3.2 | 0.00 | 0.00 | 0.00 | 62 | 1014.8 |
| 20260506214715 | 16 | 312 | 3.2 | 3.2 | 0.00 | 0.00 | 0.00 | 62 | 1014.8 |
| 20260506214214 | 16 | 318 | 6.4 | 6.4 | 0.00 | 0.00 | 0.00 | 59 | 1014.8 |
| 20260506213715 | 16 | 319 | 3.2 | 3.2 | 0.00 | 0.00 | 0.00 | 61 | 1014.8 |
| 20260506213213 | 16 | 318 | 6.4 | 8.0 | 0.00 | 0.00 | 0.00 | 61 | 1014.8 |
| 20260506212701 | 16 | 318 | 6.4 | 6.4 | 0.00 | 0.00 | 0.00 | 62 | 1014.8 |
| 20260506212201 | 16 | 314 | 6.4 | 8.0 | 0.00 | 0.00 | 0.00 | 62 | 1014.8 |
| 20260506211702 | 16 | 306 | 4.8 | 4.8 | 0.00 | 0.00 | 0.00 | 63 | 1014.7 |
| 20260506211201 | 16 | 312 | 6.4 | 6.4 | 0.00 | 0.00 | 0.00 | 62 | 1014.7 |
| 20260506210700 | 16 | 314 | 6.4 | 6.4 | 0.00 | 0.00 | 0.00 | 64 | 1014.6 |
| 20260506210201 | 16 | 318 | 6.4 | 6.4 | 0.00 | 0.00 | 0.00 | 62 | 1014.7 |
| 20260506205648 | 16 | 312 | 6.4 | 6.4 | 0.00 | 0.00 | 0.00 | 60 | 1014.7 |
| 20260506205148 | 16 | 318 | 6.4 | 6.4 | 0.00 | 0.00 | 0.00 | 61 | 1014.7 |
| 20260506204635 | 16 | 312 | 6.4 | 8.0 | 0.00 | 0.00 | 0.00 | 63 | 1014.7 |
| 20260506204136 | 15 | 320 | 6.4 | 6.4 | 0.00 | 0.00 | 0.00 | 65 | 1014.6 |
| 20260506203635 | 15 | 306 | 6.4 | 6.4 | 0.00 | 0.00 | 0.00 | 66 | 1014.7 |
| 20260506203135 | 14 | 318 | 3.2 | 3.2 | 0.00 | 0.00 | 0.00 | 72 | 1014.7 |
| 20260506202638 | 14 | 319 | 3.2 | 3.2 | 0.00 | 0.00 | 0.00 | 72 | 1014.7 |
| 20260506202135 | 13 | 306 | 4.8 | 4.8 | 0.00 | 0.00 | 0.00 | 74 | 1014.6 |
| 20260506201623 | 15 | 312 | 4.8 | 4.8 | 0.00 | 0.00 | 0.00 | 71 | 1014.6 |
| 20260506201110 | 14 | 312 | 3.2 | 3.2 | 0.00 | 0.00 | 0.00 | 72 | 1014.6 |
| 20260506200611 | 15 | 318 | 3.2 | 3.2 | 0.00 | 0.00 | 0.00 | 73 | 1014.7 |
| 20260506200104 | 15 | 318 | 6.4 | 6.4 | 0.00 | 0.00 | 0.00 | 71 | 1014.7 |
| 20260506195558 | 15 | 312 | 6.4 | 8.0 | 0.00 | 0.00 | 0.00 | 72 | 1014.7 |
| 20260506195045 | 14 | 318 | 6.4 | 6.4 | 0.00 | 0.00 | 0.00 | 72 | 1014.7 |
| 20260506194545 | 14 | 312 | 3.2 | 3.2 | 0.00 | 0.00 | 0.00 | 72 | 1014.7 |
| 20260506194033 | 14 | 312 | 3.2 | 3.2 | 0.00 | 0.00 | 0.00 | 73 | 1014.7 |
| 20260506193521 | 15 | 312 | 3.2 | 3.2 | 0.00 | 0.00 | 0.00 | 71 | 1014.7 |
| 20260506193020 | 15 | 312 | 6.4 | 6.4 | 0.00 | 0.00 | 0.00 | 71 | 1014.7 |
| 20260506192507 | 15 | 312 | 6.4 | 6.4 | 0.00 | 0.00 | 0.00 | 71 | 1014.6 |
| 20260506192008 | 15 | 312 | 4.8 | 4.8 | 0.00 | 0.00 | 0.00 | 71 | 1014.6 |
| 20260506191455 | 15 | 318 | 6.4 | 6.4 | 0.00 | 0.00 | 0.00 | 70 | 1014.6 |
| 20260506190956 | 15 | 312 | 4.8 | 4.8 | 0.00 | 0.00 | 0.00 | 72 | 1014.5 |
| 20260506190455 | 15 | 306 | 3.2 | 3.2 | 0.00 | 0.00 | 0.00 | 69 | 1014.4 |
| 20260506185955 | 15 | 312 | 4.8 | 4.8 | 0.00 | 0.00 | 0.00 | 71 | 1014.4 |
| 20260506185455 | 15 | 306 | 4.8 | 4.8 | 0.00 | 0.00 | 0.00 | 69 | 1014.3 |
| 20260506184955 | 15 | 318 | 3.2 | 3.2 | 0.00 | 0.00 | 0.00 | 67 | 1014.3 |
| 20260506184442 | 16 | 312 | 6.4 | 6.4 | 0.00 | 0.00 | 0.00 | 67 | 1014.2 |
| 20260506183946 | 16 | 318 | 3.2 | 3.2 | 0.00 | 0.00 | 0.00 | 67 | 1014.1 |
| 20260506183431 | 16 | 306 | 3.2 | 3.2 | 0.00 | 0.00 | 0.00 | 66 | 1014.0 |
| 20260506182918 | 16 | 318 | 3.2 | 3.2 | 0.00 | 0.00 | 0.00 | 66 | 1014.0 |
| 20260506182417 | 16 | 312 | 4.8 | 4.8 | 0.00 | 0.00 | 0.00 | 65 | 1014.0 |
| 20260506181918 | 17 | 312 | 3.2 | 3.2 | 0.00 | 0.00 | 0.00 | 64 | 1013.9 |
| 20260506181417 | 17 | 312 | 4.8 | 4.8 | 0.00 | 0.00 | 0.00 | 64 | 1013.9 |
| 20260506180918 | 17 | 318 | 3.2 | 3.2 | 0.00 | 0.00 | 0.00 | 63 | 1013.8 |
| 20260506180417 | 17 | 330 | 3.2 | 3.2 | 0.00 | 0.00 | 0.00 | 63 | 1013.7 |
| 20260506175917 | 17 | 318 | 3.2 | 3.2 | 0.00 | 0.00 | 0.00 | 61 | 1013.7 |
| 20260506175417 | 17 | 319 | 3.2 | 3.2 | 0.00 | 0.00 | 0.00 | 59 | 1013.7 |
| 20260506174917 | 18 | 330 | 3.2 | 3.2 | 0.00 | 0.00 | 0.00 | 58 | 1013.6 |
| 20260506174417 | 18 | 336 | 6.4 | 6.4 | 0.00 | 0.00 | 0.00 | 55 | 1013.6 |
| 20260506173904 | 18 | 23 | 6.4 | 8.0 | 0.00 | 0.00 | 0.00 | 55 | 1013.5 |
| 20260506173405 | 18 | 330 | 3.2 | 3.2 | 0.00 | 0.00 | 0.00 | 55 | 1013.5 |
| 20260506172852 | 18 | 348 | 3.2 | 3.2 | 0.00 | 0.00 | 0.00 | 53 | 1013.5 |
| 20260506172340 | 18 | 22 | 6.4 | 6.4 | 0.00 | 0.00 | 0.00 | 53 | 1013.6 |
| 20260506171839 | 18 | 354 | 3.2 | 3.2 | 0.00 | 0.00 | 0.00 | 52 | 1013.6 |
| 20260506171327 | 18 | 14 | 6.4 | 8.0 | 0.00 | 0.00 | 0.00 | 55 | 1013.6 |
| 20260506170827 | 19 | 342 | 6.4 | 6.4 | 0.00 | 0.00 | 0.00 | 55 | 1013.5 |
| 20260506170314 | 19 | 20 | 4.8 | 4.8 | 0.00 | 0.00 | 0.00 | 55 | 1013.6 |
| 20260506165801 | 19 | 37 | 8.0 | 8.0 | 0.00 | 0.00 | 0.00 | 55 | 1013.6 |
| 20260506165305 | 19 | 13 | 3.2 | 3.2 | 0.00 | 0.00 | 0.00 | 56 | 1013.5 |
| 20260506164749 | 19 | 25 | 3.2 | 3.2 | 0.00 | 0.00 | 0.00 | 57 | 1013.5 |
| 20260506164249 | 19 | 308 | 8.0 | 8.0 | 0.00 | 0.00 | 0.00 | 57 | 1013.6 |
| 20260506163737 | 19 | 36 | 6.4 | 6.4 | 0.00 | 0.00 | 0.00 | 58 | 1013.5 |
| 20260506163238 | 19 | 36 | 6.4 | 6.4 | 0.00 | 0.00 | 0.00 | 57 | 1013.6 |
| 20260506162725 | 19 | 36 | 4.8 | 4.8 | 0.00 | 0.00 | 0.00 | 57 | 1013.7 |
| 20260506162212 | 20 | 62 | 6.4 | 6.4 | 0.00 | 0.00 | 0.00 | 56 | 1013.6 |